[Iaude] MPEC B161: 2012 QY14 [a=2.39,e=0.48,i=3.2,H=20.0]

mpec at si.edu mpec at si.edu
Tue Jan 31 10:15:45 EST 2017


M.P.E.C. 2017-B161                               Issued 2017 Jan. 31, 15:11 UT
 
     The Minor Planet Electronic Circulars contain information on unusual
         minor planets and routine data on comets.  They are published
    on behalf of Division F of the International Astronomical Union by the
          Minor Planet Center, Smithsonian Astrophysical Observatory,
                          Cambridge, MA 02138, U.S.A.

             Prepared using the Tamkin Foundation Computer Network

                              MPC at CFA.HARVARD.EDU
            URL http://www.minorplanetcenter.net/    ISSN 1523-6714


                                   2012 QY14
 
                           Revision to MPEC 2012-Q46
 
Additional Observations:
     K12Q14Y  C2017 01 25.42083607 35 49.298+16 56 19.34         23.1 GUEB161T12
     K12Q14Y  C2017 01 26.33139507 34 47.549+16 58 59.66         23.1 GUEB161T12
     K12Q14Y  C2017 01 26.33924307 34 47.000+16 59 01.12         23.2 GUEB161T12
 
Observer details:
T12 Mauna Kea-UH/Tholen NEO Follow-Up (2.24-m).  Observers Y. Ramanjooloo,
    D. Hung, Z. Claytor.  Measurer D. J. Tholen.  2.24-m University of Hawaii
    reflector.
 
First and last observations above in comparison with prediction:
Residuals in seconds of arc, reference and Delta-T
170125 T12 17.8+  3.2-    170126 T12 17.7+  3.2-    MPO252114   -0.011 day
 
Orbital elements:
2012 QY14                                                Earth MOID = 0.2534 AU
Epoch 2017 Feb. 16.0 TT = JDT 2457800.5                 MPC
M  64.29610              (2000.0)            P               Q
n   0.26611605     Peri.  122.25663     +0.99710458     -0.05839124
a   2.3938045      Node   241.13238     +0.03610540     +0.92732058
e   0.4780310      Incl.    3.18870     +0.06692425     +0.36968501
P   3.70           H   20.0           G   0.15           U   1
Residuals in seconds of arc
120821 F51  0.0   0.0     120905 H21  0.1-  0.0     120921 A14  0.1+  0.2+
120821 F51  0.1-  0.0     120905 H21  0.1-  0.1-    120924 H21  0.2-  0.1-
120821 F51  0.0   0.1-    120905 H21  0.1-  0.1-    120924 H21  0.1+  0.2-
120821 F51  0.0   0.1-    120906 H21  0.1-  0.1-    120924 H21  0.1-  0.3-
120822 474  0.1+  0.0     120906 H21  0.1-  0.2-    120930 H21  0.3-  0.1-
120822 474  0.1+  0.0     120906 H21  0.1-  0.1-    120930 H21  0.2-  0.3+
120822 474  0.0   0.0     120908 160  0.3-  0.0     120930 H21  0.2-  0.1+
120822 474  0.1-  0.1+    120908 160  1.4-  0.1-    121004 H21  0.3-  0.0
120822 B96  0.1-  0.4-    120908 I93  0.2-  0.3+    121004 H21  0.3-  0.2+
120822 B96  1.3+  1.5+    120908 I93  0.0   0.2+    121004 H21  0.2-  0.1-
120822 B96  0.4-  0.8-    120908 I93  0.2+  0.3+    121004 H21  0.1-  0.1+
120822 595  0.4+  0.1-    120909 H21  0.2+  0.0     121004 703  0.2+  0.7+
120822 B96  0.5-  0.4-    120909 H21  0.1-  0.1-    121004 703  0.2-  0.1-
120822 595  0.0   0.4-    120909 H21  0.0   0.0     121004 703  0.5+  0.4+
120823 H21  0.1+  0.2-    120909 H21  0.0   0.2+    121004 703  0.2+  0.5+
120823 H21  0.0   0.2-    120910 I42  0.4-  0.1+    121005 B67  0.4+  0.6+
120823 H21  0.0   0.2-    120910 I42  0.9+  0.4+    121005 B67  0.4+  0.0
120823 H21  0.0   0.2-    120911 I42  0.1+  0.0     121005 B67  0.5+  0.2+
120823 474  0.1-  0.0     120911 I42  0.5+  0.6+    121009 703 (0.3-  2.4+)
120823 474  0.0   0.0     120911 H45  0.1+  0.4-    121009 703  1.1-  0.9+
120823 474  0.0   0.1-    120911 H45  0.0   0.6-    121009 703  0.8-  1.1+
120823 474  0.0   0.1+    120911 H45  0.1-  0.2-    121009 703  0.1-  0.5+
120823 474  0.3-  0.2+    120911 H45  0.0   0.2-    121013 H21  0.2-  0.1-
120823 F65  0.0   0.0     120911 H45  0.1-  0.3-    121013 H21  0.2-  0.1-
120823 F65  0.0   0.2+    120913 926  0.1-  0.0     121013 H21  0.2-  0.3-
120823 F65  0.1-  0.1+    120913 926  0.1-  0.1+    121014 F51  0.5+  0.0
120823 F65  0.0   0.1+    120913 926  0.1+  0.0     121014 F51  0.2+  0.0
120823 118  0.2+  0.2-    120915 703  0.5+  0.3+    121014 F51  0.2+  0.0
120823 118  0.6-  0.2-    120915 703  0.4+  0.1-    121014 F51  0.1+  0.2-
120824 H21  0.0   0.3-    120915 703  1.1-  0.0     121014 F51  0.0   0.1-
120824 H21  0.1+  0.3-    120915 703  0.2-  0.2-    121014 F51  0.1-  0.2-
120824 H21  0.2-  0.3-    120915 703  0.5-  0.0     121014 F51  0.1+  0.1-
120824 H21  0.1+  0.4-    120915 703  0.3-  0.0     121014 F51  0.1+  0.2-
120824 900  0.2+  0.1+    120915 703  0.4-  0.1+    121014 F51  0.1+  0.2-
120824 900  0.2-  0.4+    120916 I42  0.2+  0.1-    121017 I42 (1.1+  2.1+)
120824 900  0.2+  0.1+    120916 I42  0.6+  0.6+    121017 I42 (1.3+  1.6+)
120825 H21  0.4+  0.5+    120917 I42  0.6+  1.4+    121017 I15  1.1-  0.2+
120825 H21  0.1+  0.2-    120917 I42  0.7+  0.5+    121017 I15  1.2-  0.3-
120825 H21  0.2-  0.2-    120917 H21  0.3+  0.1-    121017 I15  0.7+  0.8+
120825 H21  0.1+  0.0     120917 H21  0.1+  0.1-    121020 703  0.7-  0.8-
120826 I76  0.0   0.0     120917 291  0.0   0.1+    121020 703  0.6-  0.6-
120826 I76  0.4+  0.0     120917 291  0.1-  0.1+    121020 703 (2.1-  1.4-)
120826 H21  0.3-  0.5+    120917 291  0.0   0.0     121020 703  0.9-  0.1+
120826 H21  0.3-  0.2-    120917 A14  0.1-  0.2+    121024 H21  0.1+  0.1+
120826 130  0.1+  0.6+    120917 A14  0.2+  0.0     121024 H21  0.4-  0.2+
120826 130  0.4+  0.2-    120917 A14  0.2+  0.3+    121024 H21  0.1+  0.3+
120826 204  0.2+  0.2+    120918 291  0.0   0.2-    121024 H21  0.2+  0.3+
120826 204  0.2-  0.1-    120918 291  0.0   0.2+    121112 G96  0.2+  0.1+
120827 204  0.1+  0.1-    120918 291  0.3-  0.1+    121112 G96  0.5+  0.3-
120828 H21  0.1-  0.0     120919 291  0.1+  0.3+    121112 G96  0.2-  0.3-
120828 H21  0.0   0.3+    120919 291  0.7-  0.8-    121112 G96  0.6-  0.1+
120828 H21  0.2+  0.4+    120919 291  0.0   0.3+    121120 G96  0.7+  0.1-
120828 H21  0.3+  0.4+    120919 H45  0.1-  0.0     121120 G96  0.4+  0.1-
120831 807  0.2+  0.2-    120919 H45  0.2+  0.2-    121120 G96  0.3-  0.3-
120831 807  0.4-  0.3-    120919 H45  0.1+  0.3-    121120 G96  0.3-  0.0
120901 807  0.2+  0.0     120919 H45  0.2+  0.3-    130107 H21  0.0   0.9-
120901 807  0.0   0.3-    120919 H45  0.4+  0.1-    130107 H21  0.2+  0.7+
120901 807  0.1+  0.3-    120919 H45  0.2-  0.0     130107 H21  0.0   0.2-
120901 807  0.2+  0.3-    120921 291  0.0   0.1+    130107 H21  0.1-  0.2-
120901 807  0.1+  0.1-    120921 291  0.0   0.2+    170125 T12  0.1+  0.0
120904 H21  0.1-  0.0     120921 291  0.0   0.1+    170126 T12  0.0   0.0
120904 H21  0.1-  0.0     120921 A14  0.4+  0.5-    170126 T12  0.0   0.0
120904 H21  0.1-  0.0     120921 A14  0.0   0.1+

Ephemeris:
2012 QY14                a,e,i = 2.39, 0.48, 3                   q = 1.2495
Date    TT    R. A. (2000) Decl.     Delta      r     Elong.  Phase     V
2017 01 01    08 07 37.5 +15 44 06   1.2260  2.1741   159.4     9.2    22.7
...
2017 01 16    07 47 31.7 +16 27 38   1.2773  2.2592   175.4     2.0    22.5
...
2017 01 24    07 37 28.5 +16 52 06   1.3307  2.3036   168.4     4.9    22.8
...
2017 01 30    07 30 51.2 +17 09 30   1.3824  2.3364   161.1     7.8    23.1
2017 01 31    07 29 50.8 +17 12 16   1.3920  2.3418   159.9     8.3    23.1
2017 02 01    07 28 52.2 +17 15 00   1.4018  2.3473   158.7     8.8    23.2
...
2017 02 07    07 23 41.0 +17 30 29   1.4659  2.3795   151.5    11.4    23.4
...
2017 02 15    07 18 39.3 +17 48 23   1.5641  2.4219   142.3    14.5    23.7
...
2017 03 02    07 15 04.8 +18 12 54   1.7807  2.4993   126.4    18.6    24.2

A. U. Tomatic                (C) Copyright 2017 MPC           M.P.E.C. 2017-B161




More information about the Iaude mailing list